Tracking 33831 objects as of 16-Apr-2026
HD Live streaming from Space Station
objects crossing your sky now

CZ-6A DEB

Track CZ-6A DEB now!
10-day predictions


NORAD ID: 54467
Int'l Code: 2022-151GT
Perigee: 675.5 km
Apogee: 814.6 km
Inclination: 98.6 °
Period: 99.6 minutes
Semi major axis: 7116 km
RCS: Unknown
Launch date: November 11, 2022
Source: People's Republic of China (PRC)
Launch site: Taiyaun Space Center, China (TSC)

Note: This is SATELLITE DEBRIS
Your satellite tracking list
Your tracking list is empty




NASA's NSSDC Master Catalog

Two Line Element Set (TLE):
1 54467U 22151GT  26105.56367294  .00001607  00000-0  43595-3 0  9996
2 54467  98.6072 143.3095 0097770 186.8514 173.1347 14.46246069179610
Source of the keplerian elements: AFSPC